Weather History for PARC - February, 2014

Change the Weather History Date:

Thursday, February 20, 2014

  Actual Average Record
Temperature  
Mean Temperature -26 °F -  
Max Temperature -16 °F 0 °F 30 °F (2008)
Min Temperature -36 °F -26 °F -48 °F (1990)
Degree Days  
Heating Degree Days 91    
Moisture  
Dew Point -26 °F    
Average Humidity 71    
Maximum Humidity 91    
Minimum Humidity 58    
Precipitation  
Precipitation 0.00 in - - ()
Sea Level Pressure  
Sea Level Pressure 29.93 in    
Wind  
Wind Speed 0 mph (NE)    
Max Wind Speed 5 mph    
Max Gust Speed -    
Visibility 8 miles    
Events      
Averages and records for this station are not official NWS values.
T = Trace of Precipitation, MM = Missing Value Source: NWS Daily Summary

Daily Weather History Graph

Daily Weather History Graph

Search for Another Location

Airport or City:

Trip Planner

Search our weather history database for the weather conditions in past years. The results will help you decide how hot, cold, wet, or windy it might be!

Date:

Astronomy

Feb. 20, 2014 Rise Set
Actual Time 8:38 AM AKST 5:14 PM AKST
Civil Twilight 7:39 AM AKST 6:14 PM AKST
Nautical Twilight 6:34 AM AKST 7:19 PM AKST
Astronomical Twilight 5:29 AM AKST 8:24 PM AKST
Moon 1:01 AM AKST (2/20) 8:33 AM AKST (2/20)
Length of Visible Light 10h 34m
Length of Day
8h 36m
Waning Gibbous, 69% of the Moon is Illuminated
Feb 20
Waning Gibbous
Feb 22
Last Quarter
Feb 28
New
Mar 8
First Quarter
Mar 16
Full

Hourly Weather History & Observations

Time (AKST) Temp. Windchill Dew Point Humidity Pressure Visibility Wind Dir Wind Speed Gust Speed Precip Events Conditions
12:16 AM -27.4 °F - - N/A% 29.82 in 9.0 mi Calm Calm - N/A   Mostly Cloudy
12:36 AM -29.2 °F - - N/A% 29.82 in 10.0 mi Calm Calm - N/A   Partly Cloudy
12:56 AM -31.0 °F - - N/A% 29.82 in 5.0 mi Calm Calm - N/A   Clear
1:16 AM -27.4 °F - - N/A% 29.83 in 9.0 mi Calm Calm - N/A   Clear
1:36 AM -29.2 °F - - N/A% 29.83 in 10.0 mi Calm Calm - N/A   Clear
1:56 AM -32.8 °F - - N/A% 29.83 in 10.0 mi Calm Calm - N/A   Clear
2:16 AM -27.4 °F - - N/A% 29.84 in 10.0 mi Calm Calm - N/A   Clear
2:36 AM -29.2 °F -41.2 °F - N/A% 29.84 in 10.0 mi North 3.5 mph - N/A   Clear
2:56 AM -32.8 °F - - N/A% 29.84 in 10.0 mi Calm Calm - N/A   Clear
3:16 AM -34.6 °F - - N/A% 29.85 in 10.0 mi Calm Calm - N/A   Clear
3:36 AM -31.0 °F - - N/A% 29.85 in 10.0 mi Calm Calm - N/A   Clear
3:56 AM -32.8 °F - - N/A% 29.85 in 10.0 mi Calm Calm - N/A   Clear
4:16 AM -34.6 °F - - N/A% 29.86 in 10.0 mi Calm Calm - N/A   Clear
4:36 AM -32.8 °F -48.2 °F - N/A% 29.86 in 10.0 mi NE 4.6 mph - N/A   Clear
4:56 AM -29.2 °F -41.2 °F - N/A% 29.86 in 10.0 mi ENE 3.5 mph - N/A   Clear
5:16 AM -27.4 °F -39.2 °F - N/A% 29.86 in 10.0 mi NNE 3.5 mph - N/A   Clear
5:36 AM -32.8 °F - - N/A% 29.86 in 10.0 mi Calm Calm - N/A   Clear
5:56 AM -34.6 °F - - N/A% 29.87 in 10.0 mi Calm Calm - N/A   Clear
6:16 AM -32.8 °F - - N/A% 29.87 in 10.0 mi Calm Calm - N/A   Clear
6:36 AM -31.0 °F - - N/A% 29.87 in 10.0 mi Calm Calm - N/A   Clear
6:56 AM -32.8 °F - - N/A% 29.88 in 5.0 mi Calm Calm - N/A   Clear
7:16 AM -34.6 °F - - N/A% 29.88 in 10.0 mi Calm Calm - N/A   Clear
7:36 AM -32.8 °F - - N/A% 29.89 in 10.0 mi Calm Calm - N/A   Clear
7:56 AM -32.8 °F - - N/A% 29.89 in 9.0 mi Calm Calm - N/A   Clear
8:16 AM -36.4 °F - - N/A% 29.89 in 1.2 mi Calm Calm - N/A   Clear
8:36 AM -36.4 °F - - N/A% 29.90 in 3.0 mi Calm Calm - N/A   Clear
8:56 AM -31.0 °F - - N/A% 29.90 in 10.0 mi Calm Calm - N/A   Clear
9:16 AM -34.6 °F - - N/A% 29.91 in 7.0 mi Calm Calm - N/A   Clear
9:36 AM -29.2 °F - - N/A% 29.91 in 8.0 mi Calm Calm - N/A   Clear
9:56 AM -31.0 °F - - N/A% 29.91 in 9.0 mi Calm Calm - N/A   Clear
10:16 AM -36.4 °F - - N/A% 29.92 in 3.0 mi Calm Calm - N/A   Clear
10:36 AM -31.0 °F - - N/A% 29.92 in 7.0 mi Calm Calm - N/A   Clear
10:56 AM -32.8 °F - - N/A% 29.93 in 2.5 mi Calm Calm - N/A   Clear
11:16 AM -27.4 °F - - N/A% 29.93 in 5.0 mi Calm Calm - N/A   Clear
11:36 AM -27.4 °F - - N/A% 29.93 in 9.0 mi Calm Calm - N/A   Clear
11:56 AM -25.6 °F - - N/A% 29.94 in 10.0 mi Calm Calm - N/A   Mostly Cloudy
12:16 PM -23.8 °F - - N/A% 29.94 in 10.0 mi Calm Calm - N/A   Scattered Clouds
12:36 PM -23.8 °F - - N/A% 29.95 in 10.0 mi Calm Calm - N/A   Clear
12:56 PM -22.0 °F - -23.8 °F 91% 29.95 in 10.0 mi Calm Calm - N/A   Clear
1:16 PM -20.2 °F - - N/A% 29.95 in 10.0 mi Calm Calm - N/A   Clear
1:36 PM -20.2 °F - -23.8 °F 83% 29.95 in 10.0 mi Calm Calm - N/A   Clear
1:56 PM -18.4 °F - - N/A% 29.95 in 10.0 mi Calm Calm - N/A   Clear
2:16 PM -18.4 °F - -25.6 °F 70% 29.95 in 10.0 mi Calm Calm - N/A   Clear
2:36 PM -18.4 °F - - N/A% 29.95 in 10.0 mi Calm Calm - N/A   Clear
2:56 PM -18.4 °F - -27.4 °F 63% 29.96 in 10.0 mi Calm Calm - N/A   Clear
3:16 PM -18.4 °F - - N/A% 29.96 in 10.0 mi Calm Calm - N/A   Clear
3:36 PM -18.4 °F - -25.6 °F 70% 29.96 in 10.0 mi Calm Calm - N/A   Clear
3:56 PM -16.6 °F - - N/A% 29.96 in 10.0 mi Calm Calm - N/A   Clear
4:16 PM -18.4 °F - -29.2 °F 58% 29.96 in 10.0 mi Calm Calm - N/A   Clear
4:36 PM -18.4 °F - - N/A% 29.96 in 10.0 mi Calm Calm - N/A   Clear
4:56 PM -18.4 °F - -25.6 °F 70% 29.97 in 7.0 mi Calm Calm - N/A   Clear
5:16 PM -18.4 °F - - N/A% 29.97 in 10.0 mi Calm Calm - N/A   Clear
5:36 PM -18.4 °F - -27.4 °F 63% 29.97 in 5.0 mi Calm Calm - N/A   Clear
5:56 PM -18.4 °F - - N/A% 29.98 in 5.0 mi Calm Calm - N/A   Clear
6:16 PM -18.4 °F - -27.4 °F 63% 29.98 in 9.0 mi Calm Calm - N/A   Clear
6:36 PM -22.0 °F - - N/A% 29.98 in 10.0 mi Calm Calm - N/A   Clear
6:56 PM -22.0 °F - - N/A% 29.98 in 10.0 mi Calm Calm - N/A   Clear
7:16 PM -23.8 °F - - N/A% 29.99 in 5.0 mi Calm Calm - N/A   Clear
7:36 PM -23.8 °F - - N/A% 29.99 in 3.0 mi Calm Calm - N/A   Clear
7:56 PM -23.8 °F - -27.4 °F 83% 30.00 in 4.0 mi Calm Calm - N/A   Clear
8:16 PM -25.6 °F - - N/A% 30.00 in 5.0 mi Calm Calm - N/A   Clear
8:36 PM -27.4 °F - - N/A% 30.00 in 7.0 mi Calm Calm - N/A   Clear
8:56 PM -27.4 °F - - N/A% 30.00 in 5.0 mi Calm Calm - N/A   Clear
9:16 PM -27.4 °F - - N/A% 30.01 in 10.0 mi Calm Calm - N/A   Clear
9:36 PM -29.2 °F - - N/A% 30.01 in 6.0 mi Calm Calm - N/A   Clear
9:56 PM -27.4 °F - - N/A% 30.01 in 5.0 mi Calm Calm - N/A   Clear
10:16 PM -29.2 °F -41.2 °F - N/A% 30.02 in 5.0 mi NE 3.5 mph - N/A   Clear
10:36 PM -31.0 °F - - N/A% 30.02 in 7.0 mi Calm Calm - N/A   Clear
10:56 PM -32.8 °F - - N/A% 30.02 in 9.0 mi Calm Calm - N/A   Clear
11:16 PM -29.2 °F - - N/A% 30.03 in 7.0 mi Calm Calm - N/A   Clear
11:36 PM -31.0 °F - - N/A% 30.03 in 10.0 mi Calm Calm - N/A   Clear
11:56 PM -32.8 °F - - N/A% 30.04 in 10.0 mi Calm Calm - N/A   Clear